Location: Observatoire de La Sitelle
(46.0500°N, 74.2167°W)
Time: 05:12:00
(UTC-04:00)

ISS - Visible Passes

Search period start: 21 May 2018 00:00
Search period end: 31 May 2018 00:00
Orbit: 402 x 407 km, 51.6° (Epoch: 21 May)

Date Brightness Start Highest point End Pass type
(mag) Time Alt. Az. Time Alt. Az. Time Alt. Az.
21 May -1.8 00:57:38 10° WNW 01:00:34 29° N 01:03:29 10° ENE visible
21 May -2.6 02:34:24 10° WNW 02:37:33 43° NNE 02:40:41 10° E visible
21 May -3.5 04:10:56 10° WNW 04:14:03 42° SW 04:17:09 10° SE visible
21 May -3.9 22:28:11 10° WSW 22:31:28 89° SSE 22:34:45 10° ENE visible
22 May -2.0 00:05:14 10° WNW 00:08:13 32° N 00:11:13 10° ENE visible
22 May -2.1 01:42:12 10° WNW 01:45:14 34° N 01:48:16 10° E visible
22 May -4.0 03:18:40 10° WNW 03:21:56 73° SSW 03:25:11 10° SE visible
22 May -3.7 21:36:07 10° SW 21:39:18 53° SE 21:42:30 10° ENE visible
22 May -2.3 23:12:47 10° W 23:15:53 38° NNW 23:18:59 10° NE visible
23 May -1.8 00:49:57 10° WNW 00:52:54 30° N 00:55:50 10° ENE visible
23 May -3.6 02:26:29 10° WNW 02:29:44 70° NNE 02:32:59 10° ESE visible
23 May -2.5 04:03:27 10° W 04:05:57 20° SW 04:08:25 10° S visible
23 May -2.9 22:20:23 10° W 22:23:35 51° NNW 22:26:48 10° ENE visible
23 May -1.8 23:57:36 10° WNW 00:00:31 29° N 00:03:26 10° ENE visible
24 May -2.9 01:34:17 10° WNW 01:37:28 48° NNE 01:37:41 47° NNE visible
24 May -3.7 21:28:03 10° WSW 21:31:19 78° NNW 21:34:36 10° ENE visible
24 May -1.9 23:05:10 10° WNW 23:08:08 31° N 23:11:06 10° ENE visible
25 May -2.3 00:42:04 10° NW 00:45:08 36° NNE 00:46:00 30° NE visible
25 May -1.0 02:18:32 10° WNW 02:18:35 10° WNW 02:18:35 10° WNW visible
25 May -2.1 22:12:41 10° W 22:15:45 35° NNW 22:18:49 10° NE visible
25 May -2.0 23:49:47 10° WNW 23:52:47 31° N 23:54:59 15° ENE visible
26 May -1.8 01:26:17 10° WNW 01:27:35 22° WNW 01:27:35 22° WNW visible
26 May -2.6 21:20:13 10° W 21:23:24 46° NNW 21:26:34 10° ENE visible
26 May -1.8 22:57:26 10° WNW 23:00:21 29° N 23:03:17 10° ENE visible
27 May -2.9 00:34:03 10° WNW 00:36:46 47° NNW 00:36:46 47° NNW visible
27 May -1.8 22:04:59 10° WNW 22:07:56 30° N 22:10:52 10° ENE visible
27 May -2.5 23:41:49 10° NW 23:44:55 39° NNE 23:46:02 29° ENE visible
28 May -1.1 01:18:18 10° WNW 01:18:39 12° WNW 01:18:39 12° WNW visible
28 May -2.0 21:12:28 10° WNW 21:15:30 33° N 21:18:32 10° ENE visible
28 May -2.1 22:49:31 10° WNW 22:52:31 32° N 22:55:20 11° ENE visible
29 May -2.5 00:25:58 10° WNW 00:27:58 34° WNW 00:27:58 34° WNW visible
29 May -1.9 21:57:08 10° WNW 22:00:05 29° N 22:03:01 10° ENE visible
29 May -3.5 23:33:42 10° WNW 23:36:57 62° NNE 23:37:19 57° ENE visible
30 May -2.8 22:41:25 10° WNW 22:44:35 43° NNE 22:46:41 18° E visible
